Location: *
(43.9900°N, 3.4811°E)
Time: 02:19:04
(UTC+00:00)

Cosmos 2082 Rocket - Pass Details

Date: 25 August 2019
Orbit: 832 x 855 km, 71.0° (Epoch: 23 October)

Event Time Altitude Azimuth Distance (km) Brightness Sun altitude
Rises 19:25:25 0° 163° (SSE) 3,367 4.9 -9.4°
Reaches altitude 10° 19:28:22 10° 148° (SSE) 2,442 4.1 -9.8°
Maximum altitude 19:32:28 21° 100° (E) 1,788 3.3 -10.5°
Drops below altitude 10° 19:36:36 10° 53° (NE) 2,466 4.4 -11.2°
Sets 19:39:36 0° 38° (NE) 3,411 5.2 -11.7°
